Weather History for Leesburg, FL

Change the Weather History Date:

Wednesday, October 9, 2013

  Actual Average Record
Temperature  
Mean Temperature 71 °F -  
Max Temperature 79 °F 85 °F 92 °F (1990)
Min Temperature 64 °F 64 °F 50 °F (1987)
Cooling Degree Days 6    
Growing Degree Days 21 (Base 50)    
Moisture  
Dew Point 65 °F    
Average Humidity 86    
Maximum Humidity 97    
Minimum Humidity 65    
Precipitation  
Precipitation 0.01 in - - ()
Sea Level Pressure  
Sea Level Pressure 30.04 in    
Wind  
Wind Speed 10 mph (NNE)    
Max Wind Speed 15 mph    
Max Gust Speed 18 mph    
Visibility 10 miles    
Events      
Averages and records for this station are not official NWS values.
T = Trace of Precipitation, MM = Missing Value Source: NWS Daily Summary

Daily Weather History Graph

Daily Weather History Graph

Search for Another Location

Airport:

Trip Planner

Search our weather history database for the weather conditions in past years. The results will help you decide how hot, cold, wet, or windy it might be!

Date:

Astronomy

Oct. 09, 2013 Rise Set
Actual Time 7:24 AM EDT 7:03 PM EDT
Civil Twilight 7:01 AM EDT 7:27 PM EDT
Nautical Twilight 6:33 AM EDT 7:54 PM EDT
Astronomical Twilight 6:06 AM EDT 8:22 PM EDT
Moon 12:00 PM EDT (10/9) 10:55 PM EDT (10/9)
Length of Visible Light 12h 26m
Length of Day
11h 38m
Waxing Crescent, 25% of the Moon is Illuminated
Oct 9
Waxing Crescent
Oct 11
First Quarter
Oct 18
Full
Oct 26
Last Quarter
Nov 3
New

Hourly Weather History & Observations

Time (EDT) Temp. Dew Point Humidity Pressure Visibility Wind Dir Wind Speed Gust Speed Precip Events Conditions
12:53 AM 70.0 °F 69.1 °F 97% 29.99 in 10.0 mi North 10.4 mph - N/A   Overcast
1:06 AM 69.8 °F 68.0 °F 94% 29.99 in 10.0 mi North 11.5 mph - N/A   Overcast
1:53 AM 69.1 °F 68.0 °F 96% 29.99 in 10.0 mi North 9.2 mph - N/A   Overcast
2:53 AM 68.0 °F 66.9 °F 96% 29.99 in 10.0 mi North 11.5 mph - N/A   Overcast
3:53 AM 68.0 °F 66.9 °F 96% 29.98 in 10.0 mi North 9.2 mph - N/A   Overcast
4:26 AM 68.0 °F 66.2 °F 94% 29.98 in 10.0 mi North 11.5 mph - N/A   Overcast
4:53 AM 68.0 °F 66.9 °F 96% 29.98 in 10.0 mi North 10.4 mph - N/A   Overcast
5:53 AM 66.9 °F 66.0 °F 97% 30.00 in 10.0 mi North 12.7 mph - N/A   Overcast
6:53 AM 66.9 °F 64.9 °F 93% 30.01 in 10.0 mi North 11.5 mph - N/A   Overcast
7:09 AM 66.2 °F 64.4 °F 94% 30.02 in 10.0 mi North 10.4 mph - N/A   Overcast
7:53 AM 66.0 °F 64.9 °F 96% 30.03 in 10.0 mi North 9.2 mph 18.4 mph 0.01 in   Overcast
8:53 AM 64.9 °F 64.0 °F 97% 30.06 in 10.0 mi North 8.1 mph - N/A   Overcast
9:51 AM 66.2 °F 64.4 °F 94% 30.07 in 10.0 mi North 10.4 mph - N/A   Overcast
9:53 AM 66.9 °F 64.0 °F 90% 30.07 in 10.0 mi North 9.2 mph - N/A   Overcast
10:53 AM 69.1 °F 64.0 °F 84% 30.08 in 10.0 mi North 15.0 mph - N/A   Overcast
11:00 AM 69.8 °F 64.4 °F 83% 30.08 in 10.0 mi NNE 11.5 mph - N/A   Overcast
11:53 AM 71.1 °F 64.0 °F 78% 30.08 in 10.0 mi NNE 12.7 mph - N/A   Overcast
12:17 PM 73.4 °F 64.4 °F 73% 30.08 in 10.0 mi NE 8.1 mph - N/A   Overcast
12:53 PM 75.0 °F 64.9 °F 71% 30.07 in 10.0 mi NNE 6.9 mph - N/A   Mostly Cloudy
1:53 PM 78.1 °F 66.0 °F 66% 30.04 in 10.0 mi NNE 9.2 mph - N/A   Mostly Cloudy
2:02 PM 77.0 °F 64.4 °F 65% 30.04 in 10.0 mi NNE 9.2 mph - N/A   Scattered Clouds
2:27 PM 75.2 °F 64.4 °F 69% 30.03 in 10.0 mi NNE 11.5 mph 17.3 mph N/A   Mostly Cloudy
2:53 PM 78.1 °F 66.0 °F 66% 30.04 in 10.0 mi NE 12.7 mph - N/A   Scattered Clouds
3:00 PM 75.2 °F 64.4 °F 69% 30.04 in 10.0 mi NNE 12.7 mph - N/A   Mostly Cloudy
3:53 PM 73.9 °F 64.9 °F 73% 30.04 in 10.0 mi NNE 12.7 mph - N/A   Overcast
4:53 PM 71.1 °F 64.0 °F 78% 30.04 in 10.0 mi North 11.5 mph - N/A   Overcast
5:53 PM 70.0 °F 64.0 °F 81% 30.04 in 10.0 mi NNE 10.4 mph - N/A   Overcast
6:53 PM 69.1 °F 64.0 °F 84% 30.05 in 10.0 mi North 6.9 mph - N/A   Overcast
7:31 PM 66.2 °F 64.4 °F 94% 30.05 in 10.0 mi North 4.6 mph - N/A   Scattered Clouds
7:53 PM 66.9 °F 64.9 °F 93% 30.05 in 10.0 mi Calm Calm - N/A   Partly Cloudy
8:53 PM 66.0 °F 64.9 °F 96% 30.06 in 10.0 mi North 6.9 mph - N/A   Clear
9:53 PM 66.9 °F 64.9 °F 93% 30.06 in 10.0 mi NNE 8.1 mph - N/A   Overcast
10:53 PM 64.9 °F 64.0 °F 97% 30.08 in 10.0 mi NNE 5.8 mph - N/A   Clear
11:53 PM 64.0 °F 63.0 °F 96% 30.07 in 10.0 mi North 6.9 mph - N/A   Clear